Ruston, LA

9:25 PM CST on December 11, 2019 (GMT -0600)
Ruston Regional

Weather History for KRSN - November, 2019

Change the Weather History Date:

Wednesday, November 20, 2019

  Actual Average Record
Temperature  
Mean Temperature 56 °F -  
Max Temperature 73 °F 66 °F 82 °F (1979)
Min Temperature 39 °F 43 °F 22 °F (1937)
Degree Days  
Heating Degree Days 9    
Growing Degree Days 6 (Base 50)    
Moisture  
Dew Point 45 °F    
Average Humidity 70    
Maximum Humidity 95    
Minimum Humidity 30    
Precipitation  
Precipitation 0.00 in - - ()
Sea Level Pressure  
Sea Level Pressure 30.12 in    
Wind  
Wind Speed 3 mph (SSE)    
Max Wind Speed 14 mph    
Max Gust Speed 20 mph    
Visibility 10 miles    
Events      
Averages and records for this station are not official NWS values.
T = Trace of Precipitation, MM = Missing Value Source: NWS Daily Summary

Daily Weather History Graph

Daily Weather History Graph

Search for Another Location

Airport or City:

Astronomy

Nov. 20, 2019 Rise Set
Actual Time 6:44 AM CST 5:07 PM CST
Civil Twilight 6:18 AM CST 5:33 PM CST
Nautical Twilight 5:48 AM CST 6:03 PM CST
Astronomical Twilight 5:18 AM CST 6:32 PM CST
Moon 12:00 AM CST (11/20) 1:36 PM CST (11/20)
Length of Visible Light 11h 15m
Length of Day
10h 22m
Last Quarter, 40% of the Moon is Illuminated
Nov 20
Last Quarter
Nov 26
New
Dec 4
First Quarter
Dec 11
Full
Dec 18
Last Quarter

Hourly Weather History & Observations

Time (CST) Temp. Dew Point Humidity Pressure Visibility Wind Dir Wind Speed Gust Speed Precip Events Conditions
12:15 AM 44.6 °F 41.9 °F 90% 30.07 in 10.0 mi Calm Calm - N/A   Clear
12:35 AM 45.0 °F 41.9 °F 89% 30.07 in 10.0 mi Calm Calm - N/A   Clear
12:55 AM 44.1 °F 41.4 °F 90% 30.08 in 10.0 mi Calm Calm - N/A   Clear
1:15 AM 43.9 °F 41.4 °F 91% 30.08 in 10.0 mi Calm Calm - N/A   Clear
1:35 AM 42.4 °F 40.3 °F 92% 30.08 in 10.0 mi Calm Calm - N/A   Clear
1:55 AM 46.8 °F 41.2 °F 81% 30.09 in 10.0 mi South 4.6 mph - N/A   Clear
2:15 AM 45.9 °F 40.8 °F 83% 30.09 in 10.0 mi Calm Calm - N/A   Clear
2:35 AM 44.1 °F 41.0 °F 89% 30.09 in 10.0 mi Calm Calm - N/A   Clear
2:55 AM 43.2 °F 40.6 °F 91% 30.09 in 10.0 mi Calm Calm - N/A   Clear
3:15 AM 43.5 °F 41.0 °F 91% 30.10 in 10.0 mi Calm Calm - N/A   Clear
3:35 AM 43.2 °F 41.2 °F 93% 30.10 in 10.0 mi Calm Calm - N/A   Clear
3:55 AM 41.7 °F 39.7 °F 93% 30.10 in 10.0 mi Calm Calm - N/A   Clear
4:15 AM 41.5 °F 39.6 °F 93% 30.10 in 10.0 mi Calm Calm - N/A   Clear
4:35 AM 42.1 °F 40.5 °F 94% 30.10 in 10.0 mi Calm Calm - N/A   Clear
4:55 AM 41.4 °F 39.9 °F 95% 30.10 in 10.0 mi Calm Calm - N/A   Clear
5:15 AM 42.1 °F 40.3 °F 93% 30.11 in 10.0 mi Calm Calm - N/A   Clear
5:35 AM 41.2 °F 39.0 °F 92% 30.11 in 10.0 mi Calm Calm - N/A   Clear
6:15 AM 40.5 °F 38.3 °F 92% 30.12 in 10.0 mi Calm Calm - N/A   Clear
6:35 AM 39.9 °F 37.4 °F 91% 30.13 in 10.0 mi Calm Calm - N/A   Clear
7:15 AM 41.5 °F 38.7 °F 89% 30.15 in 10.0 mi Calm Calm - N/A   Clear
7:35 AM 45.0 °F 41.9 °F 89% 30.15 in 10.0 mi Calm Calm - N/A   Clear
8:55 AM 51.6 °F 45.3 °F 79% 30.19 in 10.0 mi South 3.5 mph - N/A   Clear
9:15 AM 52.9 °F 46.8 °F 80% 30.19 in 10.0 mi South 4.6 mph - N/A   Clear
9:35 AM 55.4 °F 48.4 °F 77% 30.19 in 10.0 mi South 4.6 mph - N/A   Clear
9:55 AM 60.1 °F 49.3 °F 67% 30.19 in 10.0 mi South 6.9 mph - N/A   Clear
10:15 AM 63.1 °F 50.5 °F 63% 30.19 in 10.0 mi SSE 6.9 mph - N/A   Clear
10:35 AM 61.7 °F 51.1 °F 68% 30.20 in 10.0 mi SSE 3.5 mph - N/A   Clear
10:55 AM 65.5 °F 51.1 °F 60% 30.19 in 10.0 mi SSE 8.1 mph - N/A   Clear
11:15 AM 68.0 °F 49.8 °F 52% 30.18 in 10.0 mi South 9.2 mph - N/A   Clear
11:35 AM 69.6 °F 48.4 °F 47% 30.17 in 10.0 mi SSE 6.9 mph - N/A   Clear
12:15 PM 72.1 °F 42.6 °F 34% 30.15 in 10.0 mi South 11.5 mph - N/A   Clear
12:30 PM 73.2 °F 40.6 °F 31% 30.14 in 10.0 mi South 12.7 mph 17.3 mph N/A   Clear
12:55 PM 73.4 °F 40.1 °F 30% 30.14 in 10.0 mi SSE 13.8 mph 19.6 mph N/A   Clear
1:15 PM 72.7 °F 41.4 °F 32% 30.12 in 10.0 mi South 11.5 mph - N/A   Clear
1:35 PM 72.9 °F 41.2 °F 32% 30.12 in 10.0 mi SSE 12.7 mph 16.1 mph N/A   Clear
1:55 PM 71.2 °F 42.4 °F 35% 30.11 in 10.0 mi South 9.2 mph - N/A   Clear
2:15 PM 69.8 °F 43.5 °F 39% 30.10 in 10.0 mi SSE 9.2 mph - N/A   Clear
2:35 PM 72.5 °F 45.1 °F 37% 30.09 in 10.0 mi SSE 10.4 mph 16.1 mph N/A   Clear
2:55 PM 72.5 °F 47.1 °F 40% 30.09 in 10.0 mi SE 9.2 mph - N/A   Clear
3:15 PM 72.9 °F 45.9 °F 38% 30.09 in 10.0 mi SE 9.2 mph - N/A   Clear
3:35 PM 73.6 °F 46.9 °F 39% 30.09 in 10.0 mi SSE 4.6 mph - N/A   Clear
3:55 PM 71.4 °F 47.7 °F 43% 30.08 in 10.0 mi SSE 5.8 mph - N/A   Clear
4:15 PM 69.4 °F 48.4 °F 47% 30.08 in 10.0 mi SE 5.8 mph - N/A   Clear
4:35 PM 70.3 °F 48.6 °F 46% 30.08 in 10.0 mi SE 5.8 mph - N/A   Clear
4:55 PM 69.3 °F 49.1 °F 49% 30.08 in 10.0 mi SE 4.6 mph - N/A   Clear
5:15 PM 66.9 °F 49.6 °F 54% 30.08 in 10.0 mi SE 3.5 mph - N/A   Clear
5:35 PM 65.1 °F 49.5 °F 57% 30.09 in 10.0 mi SE 3.5 mph - N/A   Clear
5:55 PM 63.7 °F 49.6 °F 60% 30.09 in 10.0 mi SE 4.6 mph - N/A   Clear
7:15 PM 56.5 °F 50.2 °F 79% 30.11 in 10.0 mi Calm Calm - N/A   Clear
7:35 PM 55.6 °F 49.1 °F 79% 30.11 in 10.0 mi Calm Calm - N/A   Clear
7:55 PM 55.8 °F 49.3 °F 79% 30.12 in 10.0 mi Calm Calm - N/A   Clear
8:15 PM 54.3 °F 49.8 °F 85% 30.13 in 10.0 mi Calm Calm - N/A   Clear
8:35 PM 53.1 °F 49.6 °F 88% 30.13 in 10.0 mi Calm Calm - N/A   Clear
8:55 PM 52.7 °F 48.7 °F 86% 30.14 in 10.0 mi South 4.6 mph - N/A   Clear
9:15 PM 55.0 °F 47.3 °F 75% 30.13 in 10.0 mi South 3.5 mph - N/A   Clear
9:55 PM 54.5 °F 46.4 °F 74% 30.14 in 10.0 mi South 6.9 mph - N/A   Clear
10:15 PM 54.7 °F 46.4 °F 74% 30.14 in 10.0 mi South 4.6 mph - N/A   Clear
10:35 PM 55.0 °F 45.7 °F 71% 30.15 in 10.0 mi South 4.6 mph - N/A   Clear
10:55 PM 53.8 °F 45.7 °F 74% 30.15 in 10.0 mi South 5.8 mph - N/A   Clear
11:15 PM 55.0 °F 45.5 °F 70% 30.15 in 10.0 mi South 5.8 mph - N/A   Clear
11:35 PM 54.5 °F 45.1 °F 71% 30.15 in 10.0 mi South 5.8 mph - N/A   Clear
11:55 PM 55.6 °F 45.3 °F 68% 30.14 in 10.0 mi SSE 6.9 mph - N/A   Clear